Location: Bun Machan
(52.1403°N, 7.3744°W)
Time: 18:39:20
(UTC+00:00)

Sich 1 - Pass Details

Date: 14 July 2020
Orbit: 595 x 624 km, 82.5° (Epoch: 12 August)

Event Time Altitude Azimuth Distance (km) Brightness Sun altitude
Exits shadow 01:10:30 23° 224° (SW) 1,307 4.3 -15.8°
Maximum altitude 01:12:54 46° 286° (WNW) 825 3.7 -15.8°
Drops below altitude 10° 01:17:09 10° 1° (N) 1,989 7.0 -15.7°
Sets 01:19:28 0° 7° (N) 2,904 8.4 -15.6°
